Welcome to the New NWS' Forecast!
Most changes are behind the scenes, but click here for differences you might notice.
Latest weather observations around

West Memphis, West Memphis Municipal Airport (KAWM)

Using English Units (Switch to International System of Units)
Date/ Time (CST) Wind (mph) Vis. (mi) Weather Sky Cond. Temp (°F) Rel. Humidity Wind Chill (°F) Heat Index (°F) Pressure Precip. (in)
Air Dwpt 6 hour Altimeter (inHg) Sea level (inHg) 1 hr 3 hr 6 hr
Max Min
Dec 14 01:53 S 5 10 Clear CLR 35 29     78% 31   29.88 29.88      
Dec 14 00:53 SW 3 10 Clear CLR 36 28     73% 33   29.86 29.86      
Dec 13 23:53 3 10 Clear CLR 44 30     58% 43   29.85 29.85      
Dec 13 22:53 WSW 3 10 Clear CLR 46 29     51% 45   29.84 29.84      
Dec 13 21:53 SSW 3 10 Clear CLR 47 29     49% 46   29.83 29.83      
Dec 13 20:53 SSW 6 10 Clear CLR 43 29     57% 39   29.83 29.83      
Dec 13 19:53 SSW 7 10 Clear CLR 45 29     53% 41   29.82 29.82      
Dec 13 18:53 SSW 7 10 Clear CLR 51 27     39%     29.8 29.8      
Dec 13 17:53 SSW 8 10 Clear CLR 53 27     36%     29.79 29.79     0
Dec 13 16:53 SW 8 10 Partly Cloudy SCT080 56 27     33%     29.79 29.79      
Dec 13 15:53 SW 11 10 Clear CLR 58 26     29%     29.79 29.79      
Dec 13 14:53 SW 15 10 Clear CLR 58 26     29%     29.77 29.78   0  
Dec 13 13:53 SW 15 10 Clear CLR 56 27     33%     29.81 29.81 0    
Dec 13 12:53 SSW 16 10 Clear   54 27     35%     29.83 29.83 0    
Dec 13 11:53 SSW 13 10 Light Rain CLR 51 25     36%     29.88 29.88 0   0
Dec 13 10:53 SSW 14 10 Light Rain CLR 47 24     40% 41   29.93 29.93 0    
Dec 13 09:53 S 15 10 Clear CLR 44 25     47% 37   29.97 29.97      
Dec 13 08:54 S 13 10 Clear   40 26     57% 32   29.99 30      
Dec 13 07:53 SSW 9 10 Clear CLR 35 25     66% 28   30.01 30.02      
Dec 13 06:53 S 8 10 Clear CLR 26 24     92% 18   30.02 30.03      
Dec 13 05:53 SSW 6 10 Clear CLR 27 22     81% 20   30.05 30.05      
Dec 13 04:53 SSW 7 10 Clear CLR 28 22     78% 21   30.06 30.06      
Dec 13 03:53 S 5 10 Clear CLR 24 22     91% 18   30.08 30.09      
Dec 13 02:53 S 5 10 Clear CLR 25 22     88% 19   30.1 30.11      
Dec 13 01:53 Calm 10 Clear CLR 26 23     88%     30.11 30.12      
Dec 13 00:53 Calm 10 Clear CLR 26 22     84%     30.12 30.12      
Dec 12 23:53 Calm 10 Clear CLR 27 23     85%     30.14 30.14      
Dec 12 22:53 Calm 10 Clear CLR 28 23     81%     30.15 30.15      
Dec 12 21:53 Calm 10 Clear CLR 29 24     82%     30.15 30.16      
Dec 12 20:53 Calm 10 Clear CLR 28 23     81%     30.16 30.17      
Dec 12 19:53 Calm 10 Clear CLR 30 23     75%     30.17 30.17      
Dec 12 18:53 Calm 10 Clear CLR 33 23     66%     30.17 30.17      
Dec 12 17:53 Calm 10 Clear CLR 34 26     72%     30.17 30.17      
Dec 12 16:53 NW 5 10 Clear CLR 40 24     53% 37   30.17 30.17      
Dec 12 15:53 5 10 Clear CLR 44 25     47% 41   30.17 30.17      
Dec 12 14:53 N 10 10 Clear CLR 45 25     45% 40   30.18 30.18      
Dec 12 13:53 NNW 10 10 Clear CLR 46 27     47% 41   30.18 30.18      
Dec 12 12:53 NNW 10 10 Clear CLR 46 29     51% 41   30.19 30.19      
Dec 12 11:53 N 10 10 Clear CLR 45 29     53% 40   30.21 30.21      
Dec 12 10:53 NW 9 10 Clear CLR 44 31     60% 39   30.23 30.23      
Dec 12 09:53 NNW 13 10 Clear CLR 44 31     60% 38   30.23 30.24      
Dec 12 08:53 NNW 13 10 Clear CLR 43 31     62% 36   30.21 30.21      
Dec 12 07:53 NNW 10 10 Clear CLR 41 32     70% 35   30.17 30.18      
Dec 12 06:53 NNW 8 10 Clear CLR 41 33     73% 36   30.15 30.15      
Dec 12 05:53 NW 7 10 Clear CLR 41 33     73% 36   30.11 30.11      
Dec 12 04:53 5 10 Clear CLR 41 33     73% 38   30.08 30.08      
Dec 12 03:53 NNW 7 10 Clear CLR 43 34     70% 39   30.07 30.06      
Dec 12 02:53 NNW 6 10 Clear CLR 44 34     67% 41   30.06 30.06      
Dec 12 01:53 NNW 6 10 Clear CLR 46 34     63% 43   30.05 30.04      
Dec 12 00:53 NNW 7 10 Clear CLR 48 32     54% 45   30.02 30.02      
Dec 11 23:53 NW 5 10 Clear CLR 48 31     51% 46   30.01 30      
Dec 11 22:53 Calm 10 Clear CLR 47 29     49%     30 30      
Dec 11 21:53 NW 3 10 Clear CLR 48 31     51% 47   30 30      
Dec 11 20:53 N 7 10 Clear CLR 52 31     44%     29.99 29.99      
Dec 11 19:53 3 10 Clear CLR 49 36     61% 48   29.96 29.96      
Dec 11 18:53 SW 7 10 Clear CLR 58 33     39%     29.91 29.91      
Dec 11 17:53 SSW 9 10 Clear CLR 59 34     39%     29.9 29.9      
Dec 11 16:53 SSW 10 10 Clear CLR 62 32     32%     29.91 29.91      
Dec 11 15:53 SW 11 10 Clear CLR 64 33     31%     29.91 29.91      
Dec 11 14:53 SSW 11 10 Clear CLR 65 33     30%     29.94 29.93      
Dec 11 13:53 SW 10 10 Clear CLR 65 31     28%     29.96 29.96      
Dec 11 12:53 SW 10 10 Clear CLR 64 32     30%     30 30      
Dec 11 11:53 SW 7 10 Clear CLR 60 34     37%     30.06 30.05      
Dec 11 10:53 S 7 10 Clear CLR 56 35     45%     30.1 30.1      
Dec 11 09:53 SSW 7 10 Clear CLR 49 34     56% 46   30.14 30.14      
Dec 11 08:53 S 7 10 Clear CLR 44 36     73% 40   30.14 30.14      
Dec 11 07:53 S 7 10 Clear CLR 35 33     92% 29   30.16 30.16      
Dec 11 06:53 SSE 3 10 Clear CLR 32 30     92% 29   30.15 30.16      
Dec 11 05:53 SSE 3 10 Clear CLR 32 31     96% 29   30.15 30.15      
Dec 11 04:53 SSW 6 10 Clear CLR 33 30     88% 28   30.17 30.17      
Dec 11 03:53 SSW 3 10 Clear CLR 31 30     96% 28   30.17 30.17      
Dec 11 02:53 Calm 10 Clear CLR 32 31     96%     30.17 30.17      
Dec 11 01:53 S 3 10 Clear CLR 33 30     88% 30   30.18 30.18      
Jun 11 15:53 SSW 15 10 Clear CLR 89 65     45%   91 30.01 30      
Jun 08 23:53 Calm 10 Clear CLR 62 59     90%     29.93 29.92      
Jun 08 22:53 Calm 10 Clear CLR 64 60     87%     29.92 29.91      
Jun 08 18:53 ENE 7 10 Clear CLR 77 51     40%   76 29.9 29.89      
Jun 08 11:53 NNE 11 10 Partly Cloudy SCT050 74 57     56%   74 30 29.99      
Jun 07 14:53 NE 15 10 Clear CLR 82 53     37%   81 29.92 29.91      
Jun 07 10:53 NE 10 10 Clear CLR 78 58     50%   78 29.96 29.94      
Jun 07 08:53 NNE 11 10 Clear CLR 72 60     66%   72 29.96 29.94      
Notice The following observation data may not be complete
Jun 06 07:01   1 Fog/Mist VV002          %              
Jun 06 05:53 NE 5 0.25 Fog VV002 71 71     100%   73 29.79 29.78      
Jun 06 05:30 NE 3 0.75 Fog/Mist VV002 71 71     100%   73 29.79        
Jun 05 13:53 S 7 10 Cloudy BKN023 BKN031 OVC060 79 71     77%   82 29.76 29.75